GW3691 Weather Reports


Display with metric or nautical units.
time (UTC)temp
F
wind
direction
speed
MPH
gust
MPH
rain 1hr
in
rain 24hr
in
rain mn
in
humidity
%
barometer
mb
20260504100303 56 170 0.0 0.0 0.00 0.00 0.00 95 1020.5
20260504081656 57 170 0.0 0.0 0.00 0.00 0.00 95 1020.6
20260504081152 57 170 0.0 0.0 0.00 0.00 0.00 95 1020.5
20260504080649 57 170 0.0 0.0 0.00 0.00 0.00 95 1020.5
20260504080145 57 171 0.0 0.0 0.00 0.00 0.00 95 1020.7
20260504070114 58 171 0.0 0.0 0.00 0.00 0.00 94 1020.9
20260504050502 60 170 0.0 0.0 0.00 0.00 0.00 91 1021.7
20260504045959 60 170 0.0 0.0 0.00 0.00 0.00 91 1022.0
20260504045455 60 170 0.0 0.0 0.00 0.00 0.00 91 1021.6
20260504044951 60 170 0.0 0.0 0.00 0.00 0.00 90 1021.9
20260504044449 61 170 0.0 0.0 0.00 0.00 0.00 90 1021.8
20260504043946 61 170 0.0 0.0 0.00 0.00 0.00 90 1021.7
20260504043443 61 170 0.0 0.0 0.00 0.00 0.00 90 1021.9
20260504042940 61 170 0.0 0.0 0.00 0.00 0.00 90 1021.9
20260504042436 61 170 0.0 0.0 0.00 0.00 0.00 90 1021.7
20260504041933 61 171 0.0 0.0 0.00 0.00 0.00 90 1021.9
20260504041429 61 169 0.0 0.0 0.00 0.00 0.00 89 1021.7
20260504040925 61 170 0.0 0.0 0.00 0.00 0.00 89 1021.8
20260504040424 61 169 0.0 0.0 0.00 0.00 0.00 89 1021.6
20260504035919 62 169 0.0 0.0 0.00 0.00 0.00 89 1021.6
20260504035417 62 169 0.0 0.0 0.00 0.00 0.00 89 1021.9
20260504034913 62 169 0.0 0.0 0.00 0.00 0.00 89 1021.9
20260504034411 62 169 0.0 0.0 0.00 0.00 0.00 89 1022.0
20260504033908 62 169 0.0 0.0 0.00 0.00 0.00 89 1021.8
20260504033406 62 169 0.0 0.0 0.00 0.00 0.00 89 1021.7
20260504032902 62 169 0.0 0.0 0.00 0.00 0.00 89 1021.8
20260504032359 62 169 0.0 0.0 0.00 0.00 0.00 89 1021.9
20260504031856 62 169 0.0 0.0 0.00 0.00 0.00 89 1021.9
20260504031353 62 169 0.0 0.0 0.00 0.00 0.00 88 1021.9
20260504030849 62 169 0.0 0.0 0.00 0.00 0.00 88 1021.9
20260504030347 63 169 0.0 0.0 0.00 0.00 0.00 88 1022.1
20260504025843 63 169 0.0 0.0 0.00 0.00 0.00 88 1022.0
20260504025340 63 169 0.0 0.0 0.00 0.00 0.00 88 1021.9
20260504024836 63 169 0.0 0.0 0.00 0.00 0.00 87 1021.9
20260504024333 63 169 0.0 0.0 0.00 0.00 0.00 87 1021.9
20260504023830 63 169 0.0 0.0 0.00 0.00 0.00 86 1021.8
20260504023327 63 169 0.0 0.0 0.00 0.00 0.00 86 1022.0
20260504022822 64 169 0.0 0.0 0.00 0.00 0.00 86 1021.6
20260504022319 64 168 0.0 0.0 0.00 0.00 0.00 85 1021.7
20260504021816 64 168 0.0 0.0 0.00 0.00 0.00 85 1021.7
20260504021314 64 168 0.0 0.0 0.00 0.00 0.00 85 1021.8
20260504020810 64 167 0.0 0.0 0.00 0.00 0.00 84 1021.6
20260504020307 64 167 0.0 0.0 0.00 0.00 0.00 83 1021.6
20260504015803 64 167 0.0 0.0 0.00 0.00 0.00 82 1021.6
20260504015259 65 167 0.0 0.0 0.00 0.00 0.00 82 1021.6
20260504014755 65 167 0.0 0.0 0.00 0.00 0.00 81 1021.5
20260504014252 65 166 0.0 0.0 0.00 0.00 0.00 80 1021.5
20260504013749 66 166 0.0 0.0 0.00 0.00 0.00 79 1021.5
20260504013247 66 166 0.0 0.0 0.00 0.00 0.00 79 1021.4
20260504012743 66 166 0.0 0.0 0.00 0.00 0.00 78 1021.6
20260504012241 66 163 0.0 0.0 0.00 0.00 0.00 77 1021.3
20260504011738 67 164 0.0 0.0 0.00 0.00 0.00 76 1021.2
20260504011235 67 156 0.0 0.0 0.00 0.00 0.00 76 1021.1
20260504010731 67 186 3.0 3.0 0.00 0.00 0.00 75 1021.0
20260504010226 67 143 0.0 0.0 0.00 0.00 0.00 75 1021.2
20260504005723 67 120 0.0 0.0 0.00 0.00 0.00 75 1021.4
20260504005220 67 160 0.0 0.0 0.00 0.00 0.00 75 1021.0
20260504004718 67 153 0.0 0.0 0.00 0.00 0.00 74 1021.1
20260504004215 67 154 0.0 0.0 0.00 0.00 0.00 74 1020.9
20260504003712 67 156 0.0 0.0 0.00 0.00 0.00 74 1021.1
20260504003208 67 147 0.0 0.0 0.00 0.00 0.00 74 1021.3
20260504002705 68 152 0.0 0.0 0.00 0.00 0.00 74 1021.2
20260504002202 68 154 0.0 0.0 0.00 0.00 0.00 73 1021.2
20260504001700 68 167 0.0 0.0 0.00 0.00 0.00 73 1021.3
20260504001156 68 165 0.0 1.0 0.00 0.00 0.00 73 1021.4
20260504000653 68 166 1.0 1.0 0.00 0.00 0.00 72 1021.1
20260504000151 69 156 1.0 1.0 0.00 0.00 0.00 72 1021.3
20260503235649 69 134 0.0 1.0 0.00 0.00 0.00 71 1021.2
20260503235145 69 145 1.0 1.0 0.00 0.00 0.00 71 1020.7
20260503234643 69 156 0.0 0.0 0.00 0.00 0.00 71 1020.8
20260503234141 69 132 1.0 2.0 0.00 0.00 0.00 70 1021.0
20260503233638 70 148 0.0 0.0 0.00 0.00 0.00 69 1020.9
20260503233133 70 150 0.0 1.0 0.00 0.00 0.00 68 1021.0
20260503232630 70 159 0.0 0.0 0.00 0.00 0.00 67 1020.9
20260503232128 71 156 1.0 2.0 0.00 0.00 0.00 65 1020.7
20260503231626 71 149 0.0 0.0 0.00 0.00 0.00 66 1020.8
20260503231122 71 127 1.0 1.0 0.00 0.00 0.00 66 1021.0
20260503230619 71 157 0.0 1.0 0.00 0.00 0.00 65 1020.9
20260503230116 72 123 1.0 1.0 0.00 0.00 0.00 65 1021.1
20260503225614 73 121 1.0 1.0 0.00 0.00 0.00 62 1021.1
20260503225113 73 137 0.0 1.0 0.00 0.00 0.00 63 1021.0
20260503224611 73 159 1.0 1.0 0.00 0.00 0.00 61 1020.9
20260503224109 73 164 1.0 1.0 0.00 0.00 0.00 61 1020.8
20260503223606 74 174 2.0 2.0 0.00 0.00 0.00 60 1020.8
20260503223102 74 77 2.0 3.0 0.00 0.00 0.00 59 1020.9
20260503222600 73 59 1.0 2.0 0.00 0.00 0.00 61 1020.8
20260503222058 74 158 1.0 1.0 0.00 0.00 0.00 60 1021.0
20260503221555 74 145 2.0 5.0 0.00 0.00 0.00 59 1020.8
20260503221053 74 104 0.0 1.0 0.00 0.00 0.00 59 1020.9
20260503220549 74 124 1.0 1.0 0.00 0.00 0.00 59 1020.8
20260503220046 75 127 1.0 1.0 0.00 0.00 0.00 60 1020.8
20260503215543 75 96 2.0 2.0 0.00 0.00 0.00 58 1020.8
20260503215040 75 320 2.0 3.0 0.00 0.00 0.00 59 1020.9
20260503214538 75 144 1.0 1.0 0.00 0.00 0.00 57 1020.8
20260503214034 75 109 2.0 2.0 0.00 0.00 0.00 59 1020.8
20260503213533 75 159 2.0 2.0 0.00 0.00 0.00 60 1021.0
20260503213029 75 148 3.0 3.0 0.00 0.00 0.00 59 1020.9
20260503212527 75 43 3.0 5.0 0.00 0.00 0.00 58 1021.0
20260503212024 75 74 5.0 6.0 0.00 0.00 0.00 59 1020.5
20260503211521 76 50 2.0 2.0 0.00 0.00 0.00 57 1020.9
20260503211016 75 165 2.0 2.0 0.00 0.00 0.00 59 1020.8
20260503210513 75 107 4.0 6.0 0.00 0.00 0.00 56 1020.6
20260503210009 76 163 2.0 2.0 0.00 0.00 0.00 56 1020.7
20260503205506 77 313 1.0 2.0 0.00 0.00 0.00 56 1020.7
20260503205002 76 86 5.0 7.0 0.00 0.00 0.00 57 1020.9
20260503204459 77 344 3.0 5.0 0.00 0.00 0.00 56 1021.2
20260503203956 77 166 2.0 3.0 0.00 0.00 0.00 57 1021.1
20260503203454 77 228 2.0 3.0 0.00 0.00 0.00 57 1021.2
20260503202950 75 147 0.0 1.0 0.00 0.00 0.00 59 1020.7
20260503202448 77 173 2.0 3.0 0.00 0.00 0.00 56 1020.9
20260503201947 76 169 1.0 1.0 0.00 0.00 0.00 57 1021.1
20260503201444 76 92 1.0 1.0 0.00 0.00 0.00 59 1021.0
20260503200941 76 17 2.0 3.0 0.00 0.00 0.00 56 1021.1
20260503200437 78 138 1.0 2.0 0.00 0.00 0.00 55 1021.1
20260503195934 77 159 1.0 1.0 0.00 0.00 0.00 56 1021.2
20260503195431 75 64 1.0 2.0 0.00 0.00 0.00 60 1021.4
20260503194927 76 126 2.0 2.0 0.00 0.00 0.00 58 1021.4
20260503194425 77 155 1.0 1.0 0.00 0.00 0.00 61 1021.4
20260503193920 77 143 1.0 2.0 0.00 0.00 0.00 58 1021.5
20260503193416 76 97 2.0 5.0 0.00 0.00 0.00 59 1021.8
20260503192911 77 102 2.0 2.0 0.00 0.00 0.00 54 1021.8
20260503192408 76 165 1.0 1.0 0.00 0.00 0.00 60 1021.6
20260503191904 77 33 2.0 2.0 0.00 0.00 0.00 58 1021.7
20260503191401 76 100 1.0 2.0 0.00 0.00 0.00 57 1022.0
20260503190857 78 171 1.0 1.0 0.00 0.00 0.00 56 1022.1
20260503190355 77 147 2.0 2.0 0.00 0.00 0.00 56 1022.0
20260503185852 77 147 1.0 1.0 0.00 0.00 0.00 56 1022.3
20260503185348 75 112 1.0 1.0 0.00 0.00 0.00 58 1022.2
20260503184848 76 111 0.0 1.0 0.00 0.00 0.00 59 1022.1
20260503184344 76 128 4.0 6.0 0.00 0.00 0.00 56 1022.4
20260503183840 76 141 3.0 3.0 0.00 0.00 0.00 59 1022.7
20260503183337 77 154 3.0 5.0 0.00 0.00 0.00 57 1022.3
20260503182835 77 13 4.0 6.0 0.00 0.00 0.00 58 1022.6
20260503182334 77 148 1.0 1.0 0.00 0.00 0.00 60 1022.5
20260503181830 76 86 3.0 5.0 0.00 0.00 0.00 61 1022.6
20260503181327 76 115 1.0 2.0 0.00 0.00 0.00 59 1022.7
20260503180824 75 214 3.0 3.0 0.00 0.00 0.00 62 1022.8
20260503180322 75 74 3.0 6.0 0.00 0.00 0.00 59 1022.7
20260503175818 75 148 1.0 1.0 0.00 0.00 0.00 62 1022.6
20260503175316 76 45 3.0 7.0 0.00 0.00 0.00 60 1022.7
20260503174811 76 79 4.0 7.0 0.00 0.00 0.00 58 1022.7
20260503174310 75 335 1.0 2.0 0.00 0.00 0.00 64 1023.0
20260503173805 75 158 2.0 2.0 0.00 0.00 0.00 62 1022.9
20260503173301 74 132 2.0 2.0 0.00 0.00 0.00 64 1022.7
20260503172758 74 78 2.0 2.0 0.00 0.00 0.00 64 1022.8
20260503172256 76 1 3.0 6.0 0.00 0.00 0.00 60 1022.8
20260503171752 75 160 2.0 2.0 0.00 0.00 0.00 61 1022.9
20260503171249 75 101 2.0 2.0 0.00 0.00 0.00 63 1023.1
20260503170746 74 155 2.0 3.0 0.00 0.00 0.00 61 1022.7
20260503170243 73 50 3.0 3.0 0.00 0.00 0.00 63 1023.1
20260503160205 74 128 2.0 3.0 0.00 0.00 0.00 64 1023.0
20260503150635 73 121 2.0 2.0 0.00 0.00 0.00 65 1022.8
20260503150131 72 121 3.0 6.0 0.00 0.00 0.00 67 1022.6
20260503131025 68 126 1.0 1.0 0.00 0.00 0.00 82 1021.4
20260503130522 67 116 0.0 2.0 0.00 0.00 0.00 83 1021.6
20260503110413 59 156 0.0 1.0 0.00 0.00 0.00 97 1020.6